| time (UTC) | temp F | wind direction | speed MPH | gust MPH | rain 1hr in | rain 24hr in | rain mn in | humidity % | barometer mb |
| 20260906174019 | 81 | 360 | 1.0 | 0.0 | 0.00 | 0.00 | 0.00 | 47 | 1006.7 |
| 20260906173604 | 81 | 360 | 1.0 | 0.0 | 0.00 | 0.00 | 0.00 | 47 | 1006.7 |
| 20260906173043 | 82 | 360 | 2.0 | 0.0 | 0.00 | 0.00 | 0.00 | 46 | 1006.7 |
| 20260906172521 | 82 | 360 | 2.0 | 0.0 | 0.00 | 0.00 | 0.00 | 45 | 1006.7 |
| 20260906172001 | 82 | 360 | 1.0 | 0.0 | 0.00 | 0.00 | 0.00 | 42 | 1006.8 |
| 20260906171542 | 83 | 360 | 1.0 | 0.0 | 0.00 | 0.00 | 0.00 | 40 | 1006.6 |
| 20260906171022 | 83 | 360 | 1.0 | 0.0 | 0.00 | 0.00 | 0.00 | 39 | 1006.6 |
| 20260906170501 | 83 | 360 | 1.0 | 0.0 | 0.00 | 0.00 | 0.00 | 38 | 1006.6 |
| 20260906170044 | 83 | 360 | 1.0 | 0.0 | 0.00 | 0.00 | 0.00 | 37 | 1006.6 |
| 20260906165524 | 83 | 360 | 1.0 | 0.0 | 0.00 | 0.00 | 0.00 | 37 | 1006.4 |
| 20260906165003 | 83 | 360 | 1.0 | 0.0 | 0.00 | 0.00 | 0.00 | 37 | 1006.3 |
| 20260906164549 | 83 | 360 | 1.0 | 0.0 | 0.00 | 0.00 | 0.00 | 37 | 1006.4 |
| 20260906164029 | 83 | 360 | 1.0 | 0.0 | 0.00 | 0.00 | 0.00 | 38 | 1006.3 |
| 20260906163509 | 82 | 360 | 1.0 | 0.0 | 0.00 | 0.00 | 0.00 | 39 | 1006.2 |
| 20260906163049 | 82 | 360 | 1.0 | 0.0 | 0.00 | 0.00 | 0.00 | 42 | 1006.0 |
| 20260906162529 | 82 | 360 | 1.0 | 0.0 | 0.00 | 0.00 | 0.00 | 43 | 1005.9 |
| 20260906162006 | 83 | 360 | 1.0 | 0.0 | 0.00 | 0.00 | 0.00 | 36 | 1005.8 |
| 20260906161559 | 83 | 360 | 2.0 | 0.0 | 0.00 | 0.00 | 0.00 | 35 | 1005.7 |
| 20260906161034 | 83 | 360 | 1.0 | 0.0 | 0.00 | 0.00 | 0.00 | 35 | 1005.8 |
| 20260906160517 | 83 | 360 | 1.0 | 0.0 | 0.00 | 0.00 | 0.00 | 35 | 1005.9 |
| 20260906155540 | 83 | 360 | 1.0 | 0.0 | 0.00 | 0.00 | 0.00 | 35 | 1006.0 |
| 20260906155020 | 83 | 360 | 3.0 | 0.0 | 0.00 | 0.00 | 0.00 | 34 | 1006.0 |
| 20260906154602 | 83 | 360 | 4.0 | 0.0 | 0.00 | 0.00 | 0.00 | 34 | 1005.9 |
| 20260906154040 | 82 | 360 | 5.0 | 0.0 | 0.00 | 0.00 | 0.00 | 34 | 1005.8 |
| 20260906153520 | 82 | 360 | 5.0 | 0.0 | 0.00 | 0.00 | 0.00 | 34 | 1005.8 |
| 20260906153102 | 82 | 360 | 5.0 | 0.0 | 0.00 | 0.00 | 0.00 | 34 | 1005.8 |
| 20260906152540 | 82 | 360 | 4.0 | 0.0 | 0.00 | 0.00 | 0.00 | 34 | 1005.8 |
| 20260906152020 | 82 | 360 | 4.0 | 0.0 | 0.00 | 0.00 | 0.00 | 34 | 1005.9 |
| 20260906151604 | 82 | 360 | 4.0 | 0.0 | 0.00 | 0.00 | 0.00 | 33 | 1005.9 |
| 20260906151046 | 82 | 360 | 4.0 | 0.0 | 0.00 | 0.00 | 0.00 | 34 | 1005.8 |
| 20260906150526 | 82 | 360 | 4.0 | 0.0 | 0.00 | 0.00 | 0.00 | 34 | 1005.7 |
| 20260906150006 | 82 | 360 | 4.0 | 0.0 | 0.00 | 0.00 | 0.00 | 34 | 1005.8 |
| 20260906145545 | 82 | 360 | 4.0 | 0.0 | 0.00 | 0.00 | 0.00 | 34 | 1005.5 |
| 20260906145024 | 81 | 360 | 4.0 | 0.0 | 0.00 | 0.00 | 0.00 | 33 | 1005.3 |
| 20260906144503 | 81 | 360 | 3.0 | 0.0 | 0.00 | 0.00 | 0.00 | 34 | 1005.2 |
| 20260906144043 | 81 | 360 | 3.0 | 0.0 | 0.00 | 0.00 | 0.00 | 34 | 1005.1 |
| 20260906143528 | 81 | 360 | 2.0 | 0.0 | 0.00 | 0.00 | 0.00 | 34 | 1004.9 |
| 20260906143005 | 80 | 360 | 2.0 | 0.0 | 0.00 | 0.00 | 0.00 | 34 | 1005.1 |
| 20260906142548 | 81 | 360 | 2.0 | 0.0 | 0.00 | 0.00 | 0.00 | 33 | 1005.0 |
| 20260906142031 | 80 | 360 | 2.0 | 0.0 | 0.00 | 0.00 | 0.00 | 33 | 1004.9 |
| 20260906141516 | 80 | 360 | 2.0 | 0.0 | 0.00 | 0.00 | 0.00 | 33 | 1004.9 |
| 20260906141056 | 79 | 360 | 1.0 | 0.0 | 0.00 | 0.00 | 0.00 | 33 | 1005.0 |
| 20260906140539 | 79 | 360 | 1.0 | 0.0 | 0.00 | 0.00 | 0.00 | 32 | 1005.0 |
| 20260906140032 | 79 | 360 | 1.0 | 0.0 | 0.00 | 0.00 | 0.00 | 32 | 1004.9 |
| 20260906135555 | 79 | 360 | 1.0 | 0.0 | 0.00 | 0.00 | 0.00 | 31 | 1004.8 |
| 20260906135033 | 79 | 360 | 2.0 | 0.0 | 0.00 | 0.00 | 0.00 | 31 | 1004.7 |
| 20260906134513 | 79 | 360 | 1.0 | 0.0 | 0.00 | 0.00 | 0.00 | 31 | 1004.6 |
| 20260906134056 | 79 | 360 | 1.0 | 0.0 | 0.00 | 0.00 | 0.00 | 32 | 1004.6 |
| 20260906133541 | 79 | 360 | 1.0 | 0.0 | 0.00 | 0.00 | 0.00 | 31 | 1004.6 |
| 20260906133020 | 79 | 360 | 1.0 | 0.0 | 0.00 | 0.00 | 0.00 | 31 | 1004.5 |
| 20260906132604 | 78 | 360 | 1.0 | 0.0 | 0.00 | 0.00 | 0.00 | 31 | 1004.5 |
| 20260906132048 | 78 | 360 | 1.0 | 0.0 | 0.00 | 0.00 | 0.00 | 31 | 1004.4 |
| 20260906131528 | 79 | 360 | 1.0 | 0.0 | 0.00 | 0.00 | 0.00 | 30 | 1004.4 |
| 20260906131007 | 79 | 360 | 1.0 | 0.0 | 0.00 | 0.00 | 0.00 | 30 | 1004.4 |
| 20260906130550 | 79 | 360 | 1.0 | 0.0 | 0.00 | 0.00 | 0.00 | 30 | 1004.3 |
| 20260906130032 | 79 | 360 | 1.0 | 0.0 | 0.00 | 0.00 | 0.00 | 29 | 1004.2 |
| 20260906125515 | 79 | 360 | 1.0 | 0.0 | 0.00 | 0.00 | 0.00 | 29 | 1004.2 |
| 20260906125058 | 79 | 360 | 1.0 | 0.0 | 0.00 | 0.00 | 0.00 | 29 | 1004.2 |
| 20260906124541 | 79 | 360 | 1.0 | 0.0 | 0.00 | 0.00 | 0.00 | 29 | 1004.1 |
| 20260906124020 | 79 | 360 | 1.0 | 0.0 | 0.00 | 0.00 | 0.00 | 29 | 1004.1 |
| 20260906123603 | 79 | 360 | 1.0 | 0.0 | 0.00 | 0.00 | 0.00 | 29 | 1004.1 |
| 20260906123045 | 79 | 360 | 1.0 | 0.0 | 0.00 | 0.00 | 0.00 | 29 | 1003.9 |
| 20260906122529 | 79 | 360 | 1.0 | 0.0 | 0.00 | 0.00 | 0.00 | 29 | 1004.0 |
| 20260906122007 | 79 | 360 | 1.0 | 0.0 | 0.00 | 0.00 | 0.00 | 29 | 1004.0 |
| 20260906121556 | 79 | 360 | 1.0 | 0.0 | 0.00 | 0.00 | 0.00 | 28 | 1004.1 |
| 20260906121033 | 79 | 360 | 1.0 | 0.0 | 0.00 | 0.00 | 0.00 | 28 | 1004.0 |
| 20260906120512 | 79 | 360 | 1.0 | 0.0 | 0.00 | 0.00 | 0.00 | 28 | 1004.2 |
| 20260906120057 | 79 | 360 | 1.0 | 0.0 | 0.00 | 0.00 | 0.00 | 28 | 1004.0 |
| 20260906115539 | 79 | 360 | 1.0 | 0.0 | 0.00 | 0.00 | 0.00 | 28 | 1003.9 |
| 20260906115021 | 79 | 360 | 1.0 | 0.0 | 0.00 | 0.00 | 0.00 | 28 | 1004.0 |
| 20260906114501 | 79 | 360 | 1.0 | 0.0 | 0.00 | 0.00 | 0.00 | 28 | 1004.0 |
| 20260906114050 | 79 | 360 | 1.0 | 0.0 | 0.00 | 0.00 | 0.00 | 27 | 1004.1 |
| 20260906113533 | 79 | 360 | 1.0 | 0.0 | 0.00 | 0.00 | 0.00 | 27 | 1004.0 |
| 20260906113034 | 78 | 360 | 1.0 | 0.0 | 0.00 | 0.00 | 0.00 | 27 | 1003.9 |
| 20260906112555 | 79 | 360 | 1.0 | 0.0 | 0.00 | 0.00 | 0.00 | 27 | 1003.9 |
| 20260906112037 | 79 | 360 | 1.0 | 0.0 | 0.00 | 0.00 | 0.00 | 26 | 1003.9 |
| 20260906111517 | 79 | 360 | 2.0 | 0.0 | 0.00 | 0.00 | 0.00 | 26 | 1003.9 |
| 20260906111100 | 80 | 360 | 2.0 | 0.0 | 0.00 | 0.00 | 0.00 | 26 | 1003.9 |
| 20260906110540 | 79 | 360 | 1.0 | 0.0 | 0.00 | 0.00 | 0.00 | 26 | 1004.0 |
| 20260906110020 | 78 | 360 | 1.0 | 0.0 | 0.00 | 0.00 | 0.00 | 26 | 1004.1 |
| 20260906105605 | 78 | 360 | 1.0 | 0.0 | 0.00 | 0.00 | 0.00 | 26 | 1003.9 |
| 20260906105047 | 78 | 360 | 1.0 | 0.0 | 0.00 | 0.00 | 0.00 | 26 | 1003.8 |
| 20260906104529 | 78 | 360 | 1.0 | 0.0 | 0.00 | 0.00 | 0.00 | 26 | 1003.7 |
| 20260906104009 | 78 | 360 | 1.0 | 0.0 | 0.00 | 0.00 | 0.00 | 26 | 1003.7 |
| 20260906103555 | 79 | 360 | 1.0 | 0.0 | 0.00 | 0.00 | 0.00 | 26 | 1003.5 |
| 20260906103038 | 79 | 360 | 1.0 | 0.0 | 0.00 | 0.00 | 0.00 | 26 | 1003.6 |
| 20260906102520 | 79 | 360 | 1.0 | 0.0 | 0.00 | 0.00 | 0.00 | 26 | 1003.7 |
| 20260906102103 | 79 | 360 | 1.0 | 0.0 | 0.00 | 0.00 | 0.00 | 26 | 1003.6 |
| 20260906101545 | 79 | 360 | 1.0 | 0.0 | 0.00 | 0.00 | 0.00 | 26 | 1003.6 |
| 20260906101024 | 79 | 360 | 1.0 | 0.0 | 0.00 | 0.00 | 0.00 | 26 | 1003.7 |
| 20260906100504 | 77 | 360 | 1.0 | 0.0 | 0.00 | 0.00 | 0.00 | 26 | 1003.7 |
| 20260906100048 | 77 | 360 | 0.0 | 0.0 | 0.00 | 0.00 | 0.00 | 27 | 1003.8 |
| 20260906095529 | 77 | 360 | 0.0 | 0.0 | 0.00 | 0.00 | 0.00 | 26 | 1003.7 |
| 20260906095008 | 78 | 360 | 0.0 | 0.0 | 0.00 | 0.00 | 0.00 | 26 | 1003.6 |
| 20260906094552 | 78 | 360 | 0.0 | 0.0 | 0.00 | 0.00 | 0.00 | 26 | 1003.6 |
| 20260906094034 | 79 | 360 | 0.0 | 0.0 | 0.00 | 0.00 | 0.00 | 26 | 1003.6 |
| 20260906093521 | 78 | 360 | 1.0 | 0.0 | 0.00 | 0.00 | 0.00 | 26 | 1003.6 |
| 20260906093102 | 77 | 360 | 0.0 | 0.0 | 0.00 | 0.00 | 0.00 | 26 | 1003.6 |
| 20260906092550 | 78 | 360 | 0.0 | 0.0 | 0.00 | 0.00 | 0.00 | 26 | 1003.6 |
| 20260906092027 | 79 | 360 | 0.0 | 0.0 | 0.00 | 0.00 | 0.00 | 25 | 1003.5 |
| 20260906091523 | 80 | 360 | 1.0 | 0.0 | 0.00 | 0.00 | 0.00 | 25 | 1003.3 |
| 20260906091055 | 79 | 360 | 0.0 | 0.0 | 0.00 | 0.00 | 0.00 | 25 | 1003.3 |
| 20260906090536 | 79 | 360 | 1.0 | 0.0 | 0.00 | 0.00 | 0.00 | 25 | 1003.3 |
| 20260906090015 | 79 | 360 | 1.0 | 0.0 | 0.00 | 0.00 | 0.00 | 25 | 1003.3 |
| 20260906085600 | 79 | 360 | 1.0 | 0.0 | 0.00 | 0.00 | 0.00 | 26 | 1003.5 |
| 20260906085040 | 78 | 360 | 1.0 | 0.0 | 0.00 | 0.00 | 0.00 | 27 | 1003.5 |
| 20260906084520 | 77 | 360 | 1.0 | 0.0 | 0.00 | 0.00 | 0.00 | 27 | 1003.7 |
| 20260906084107 | 77 | 360 | 0.0 | 0.0 | 0.00 | 0.00 | 0.00 | 27 | 1003.7 |
| 20260906083542 | 77 | 360 | 0.0 | 0.0 | 0.00 | 0.00 | 0.00 | 26 | 1003.6 |
| 20260906083019 | 78 | 360 | 0.0 | 0.0 | 0.00 | 0.00 | 0.00 | 26 | 1003.6 |
| 20260906082503 | 78 | 360 | 0.0 | 0.0 | 0.00 | 0.00 | 0.00 | 27 | 1003.6 |
| 20260906082046 | 79 | 360 | 0.0 | 0.0 | 0.00 | 0.00 | 0.00 | 27 | 1003.6 |
| 20260906081538 | 79 | 360 | 0.0 | 0.0 | 0.00 | 0.00 | 0.00 | 26 | 1003.5 |
| 20260906081003 | 80 | 360 | 0.0 | 0.0 | 0.00 | 0.00 | 0.00 | 25 | 1003.5 |
| 20260906080546 | 80 | 360 | 1.0 | 0.0 | 0.00 | 0.00 | 0.00 | 25 | 1003.6 |
| 20260906080031 | 80 | 360 | 1.0 | 0.0 | 0.00 | 0.00 | 0.00 | 25 | 1003.5 |
| 20260906075507 | 80 | 360 | 1.0 | 0.0 | 0.00 | 0.00 | 0.00 | 25 | 1003.7 |
| 20260906075050 | 80 | 360 | 0.0 | 0.0 | 0.00 | 0.00 | 0.00 | 24 | 1003.7 |
| 20260906074530 | 81 | 360 | 0.0 | 0.0 | 0.00 | 0.00 | 0.00 | 25 | 1003.8 |
| 20260906074009 | 81 | 360 | 1.0 | 0.0 | 0.00 | 0.00 | 0.00 | 24 | 1003.5 |
| 20260906073554 | 81 | 360 | 1.0 | 0.0 | 0.00 | 0.00 | 0.00 | 24 | 1003.5 |
| 20260906073034 | 81 | 360 | 0.0 | 0.0 | 0.00 | 0.00 | 0.00 | 24 | 1003.6 |
| 20260906072512 | 81 | 360 | 0.0 | 0.0 | 0.00 | 0.00 | 0.00 | 24 | 1003.6 |
| 20260906072059 | 81 | 360 | 1.0 | 0.0 | 0.00 | 0.00 | 0.00 | 24 | 1003.5 |
| 20260906071539 | 81 | 360 | 0.0 | 0.0 | 0.00 | 0.00 | 0.00 | 24 | 1003.6 |
| 20260906071022 | 80 | 360 | 0.0 | 0.0 | 0.00 | 0.00 | 0.00 | 24 | 1003.7 |
| 20260906070601 | 80 | 360 | 0.0 | 0.0 | 0.00 | 0.00 | 0.00 | 24 | 1003.7 |
| 20260906070040 | 79 | 360 | 0.0 | 0.0 | 0.00 | 0.00 | 0.00 | 24 | 1003.7 |
| 20260906065523 | 79 | 360 | 0.0 | 0.0 | 0.00 | 0.00 | 0.00 | 24 | 1004.0 |
| 20260906065004 | 79 | 360 | 0.0 | 0.0 | 0.00 | 0.00 | 0.00 | 24 | 1003.9 |
| 20260906064548 | 80 | 360 | 0.0 | 0.0 | 0.00 | 0.00 | 0.00 | 23 | 1003.9 |
| 20260906064030 | 81 | 360 | 0.0 | 0.0 | 0.00 | 0.00 | 0.00 | 23 | 1003.8 |
| 20260906063511 | 81 | 360 | 0.0 | 0.0 | 0.00 | 0.00 | 0.00 | 24 | 1003.7 |
| 20260906063054 | 81 | 360 | 0.0 | 0.0 | 0.00 | 0.00 | 0.00 | 23 | 1003.7 |
| 20260906062540 | 82 | 360 | 0.0 | 0.0 | 0.00 | 0.00 | 0.00 | 23 | 1003.6 |
| 20260906062023 | 82 | 360 | 0.0 | 0.0 | 0.00 | 0.00 | 0.00 | 24 | 1003.6 |
| 20260906061504 | 82 | 360 | 0.0 | 0.0 | 0.00 | 0.00 | 0.00 | 24 | 1003.6 |
| 20260906061053 | 83 | 360 | 0.0 | 0.0 | 0.00 | 0.00 | 0.00 | 23 | 1003.5 |
| 20260906060534 | 83 | 360 | 0.0 | 0.0 | 0.00 | 0.00 | 0.00 | 23 | 1003.6 |
| 20260906060025 | 83 | 360 | 0.0 | 0.0 | 0.00 | 0.00 | 0.00 | 22 | 1003.6 |
| 20260906055604 | 84 | 360 | 0.0 | 0.0 | 0.00 | 0.00 | 0.00 | 22 | 1003.8 |
| 20260906055043 | 84 | 360 | 1.0 | 0.0 | 0.00 | 0.00 | 0.00 | 22 | 1003.7 |
| 20260906054529 | 83 | 360 | 1.0 | 0.0 | 0.00 | 0.00 | 0.00 | 21 | 1003.8 |
| 20260906054004 | 83 | 360 | 1.0 | 0.0 | 0.00 | 0.00 | 0.00 | 21 | 1003.9 |
| 20260906053548 | 83 | 360 | 1.0 | 0.0 | 0.00 | 0.00 | 0.00 | 21 | 1003.8 |
| 20260906053034 | 83 | 360 | 0.0 | 0.0 | 0.00 | 0.00 | 0.00 | 21 | 1003.9 |
| 20260906052510 | 83 | 360 | 1.0 | 0.0 | 0.00 | 0.00 | 0.00 | 21 | 1004.0 |
| 20260906052054 | 83 | 360 | 1.0 | 0.0 | 0.00 | 0.00 | 0.00 | 21 | 1003.9 |
| 20260906051533 | 84 | 360 | 1.0 | 0.0 | 0.00 | 0.00 | 0.00 | 21 | 1003.9 |
| 20260906051013 | 83 | 360 | 1.0 | 0.0 | 0.00 | 0.00 | 0.00 | 21 | 1003.9 |
| 20260906050559 | 83 | 360 | 1.0 | 0.0 | 0.00 | 0.00 | 0.00 | 21 | 1003.9 |
| 20260906050046 | 83 | 360 | 1.0 | 0.0 | 0.00 | 0.00 | 0.00 | 21 | 1003.9 |
| 20260906045519 | 83 | 360 | 1.0 | 0.0 | 0.00 | 0.00 | 0.00 | 21 | 1004.1 |
| 20260906045102 | 84 | 360 | 2.0 | 0.0 | 0.00 | 0.00 | 0.00 | 20 | 1004.1 |
| 20260906044547 | 84 | 360 | 2.0 | 0.0 | 0.00 | 0.00 | 0.00 | 21 | 1004.1 |
| 20260906044029 | 84 | 360 | 2.0 | 0.0 | 0.00 | 0.00 | 0.00 | 21 | 1004.1 |
| 20260906043506 | 84 | 360 | 2.0 | 0.0 | 0.00 | 0.00 | 0.00 | 21 | 1004.1 |
| 20260906043053 | 84 | 360 | 3.0 | 0.0 | 0.00 | 0.00 | 0.00 | 21 | 1004.1 |
| 20260906042534 | 84 | 360 | 3.0 | 0.0 | 0.00 | 0.00 | 0.00 | 21 | 1004.1 |
| 20260906042014 | 84 | 360 | 2.0 | 0.0 | 0.00 | 0.00 | 0.00 | 21 | 1004.1 |
| 20260906041558 | 84 | 360 | 2.0 | 0.0 | 0.00 | 0.00 | 0.00 | 21 | 1004.1 |
| 20260906041043 | 84 | 360 | 2.0 | 0.0 | 0.00 | 0.00 | 0.00 | 21 | 1004.1 |
| 20260906040520 | 84 | 360 | 2.0 | 0.0 | 0.00 | 0.00 | 0.00 | 20 | 1004.1 |
| 20260906040105 | 85 | 360 | 2.0 | 0.0 | 0.00 | 0.00 | 0.00 | 20 | 1004.1 |
| 20260906035543 | 86 | 360 | 2.0 | 0.0 | 0.00 | 0.00 | 0.00 | 20 | 1004.2 |
| 20260906035026 | 87 | 360 | 1.0 | 0.0 | 0.00 | 0.00 | 0.00 | 20 | 1004.1 |
| 20260906034506 | 87 | 360 | 1.0 | 0.0 | 0.00 | 0.00 | 0.00 | 20 | 1004.0 |
| 20260906034048 | 87 | 360 | 1.0 | 0.0 | 0.00 | 0.00 | 0.00 | 20 | 1003.9 |
| 20260906033527 | 87 | 360 | 0.0 | 0.0 | 0.00 | 0.00 | 0.00 | 19 | 1003.9 |
| 20260906033032 | 87 | 360 | 1.0 | 0.0 | 0.00 | 0.00 | 0.00 | 19 | 1003.8 |
| 20260906032557 | 87 | 360 | 1.0 | 0.0 | 0.00 | 0.00 | 0.00 | 19 | 1003.7 |
| 20260906032047 | 88 | 360 | 1.0 | 0.0 | 0.00 | 0.00 | 0.00 | 19 | 1003.6 |
| 20260906031529 | 88 | 360 | 1.0 | 0.0 | 0.00 | 0.00 | 0.00 | 19 | 1003.6 |
| 20260906031005 | 88 | 360 | 1.0 | 0.0 | 0.00 | 0.00 | 0.00 | 19 | 1003.5 |
| 20260906030552 | 88 | 360 | 1.0 | 0.0 | 0.00 | 0.00 | 0.00 | 18 | 1003.4 |
| 20260906030035 | 88 | 360 | 1.0 | 0.0 | 0.00 | 0.00 | 0.00 | 18 | 1003.4 |
| 20260906025516 | 89 | 360 | 1.0 | 0.0 | 0.00 | 0.00 | 0.00 | 18 | 1003.6 |
| 20260906025103 | 89 | 360 | 1.0 | 0.0 | 0.00 | 0.00 | 0.00 | 18 | 1003.6 |
| 20260906024546 | 89 | 360 | 1.0 | 0.0 | 0.00 | 0.00 | 0.00 | 18 | 1003.5 |
| 20260906024026 | 89 | 360 | 1.0 | 0.0 | 0.00 | 0.00 | 0.00 | 18 | 1003.4 |
| 20260906023507 | 89 | 360 | 2.0 | 0.0 | 0.00 | 0.00 | 0.00 | 18 | 1003.4 |
| 20260906023054 | 89 | 360 | 2.0 | 0.0 | 0.00 | 0.00 | 0.00 | 18 | 1003.3 |
| 20260906022535 | 89 | 360 | 2.0 | 0.0 | 0.00 | 0.00 | 0.00 | 17 | 1003.4 |
| 20260906022015 | 90 | 360 | 1.0 | 0.0 | 0.00 | 0.00 | 0.00 | 17 | 1003.3 |
| 20260906021607 | 90 | 360 | 2.0 | 0.0 | 0.00 | 0.00 | 0.00 | 17 | 1003.3 |
| 20260906021043 | 90 | 360 | 2.0 | 0.0 | 0.00 | 0.00 | 0.00 | 18 | 1003.1 |
| 20260906020523 | 90 | 360 | 2.0 | 0.0 | 0.00 | 0.00 | 0.00 | 17 | 1003.1 |
| 20260906020003 | 90 | 360 | 2.0 | 0.0 | 0.00 | 0.00 | 0.00 | 17 | 1003.2 |
| 20260906015546 | 91 | 360 | 2.0 | 0.0 | 0.00 | 0.00 | 0.00 | 17 | 1003.5 |
| 20260906015032 | 91 | 360 | 2.0 | 0.0 | 0.00 | 0.00 | 0.00 | 16 | 1003.5 |
| 20260906014511 | 92 | 360 | 2.0 | 0.0 | 0.00 | 0.00 | 0.00 | 16 | 1003.5 |
| 20260906014057 | 91 | 360 | 2.0 | 0.0 | 0.00 | 0.00 | 0.00 | 16 | 1003.4 |
| 20260906013540 | 92 | 360 | 2.0 | 0.0 | 0.00 | 0.00 | 0.00 | 16 | 1003.5 |
| 20260906013022 | 92 | 360 | 2.0 | 0.0 | 0.00 | 0.00 | 0.00 | 15 | 1003.5 |
| 20260906012504 | 92 | 343 | 2.0 | 0.0 | 0.00 | 0.00 | 0.00 | 15 | 1003.5 |
| 20260906012051 | 93 | 245 | 2.0 | 0.0 | 0.00 | 0.00 | 0.00 | 15 | 1003.6 |
| 20260906011535 | 93 | 235 | 2.0 | 0.0 | 0.00 | 0.00 | 0.00 | 15 | 1003.5 |
| 20260906011009 | 93 | 202 | 2.0 | 0.0 | 0.00 | 0.00 | 0.00 | 15 | 1003.3 |
| 20260906010553 | 94 | 271 | 3.0 | 0.0 | 0.00 | 0.00 | 0.00 | 14 | 1003.3 |
| 20260906010041 | 94 | 141 | 3.0 | 0.0 | 0.00 | 0.00 | 0.00 | 13 | 1003.3 |
| 20260906005523 | 94 | 306 | 2.0 | 0.0 | 0.00 | 0.00 | 0.00 | 14 | 1003.3 |
| 20260906005003 | 94 | 180 | 3.0 | 0.0 | 0.00 | 0.00 | 0.00 | 14 | 1003.3 |
| 20260906004547 | 95 | 219 | 3.0 | 0.0 | 0.00 | 0.00 | 0.00 | 13 | 1003.3 |
| 20260906004027 | 95 | 5 | 2.0 | 0.0 | 0.00 | 0.00 | 0.00 | 13 | 1003.2 |
| 20260906003505 | 95 | 214 | 3.0 | 0.0 | 0.00 | 0.00 | 0.00 | 12 | 1003.4 |
| 20260906003052 | 95 | 49 | 3.0 | 0.0 | 0.00 | 0.00 | 0.00 | 12 | 1003.3 |
| 20260906002531 | 95 | 311 | 2.0 | 0.0 | 0.00 | 0.00 | 0.00 | 12 | 1003.3 |
| 20260906002011 | 95 | 360 | 3.0 | 0.0 | 0.00 | 0.00 | 0.00 | 12 | 1003.1 |
| 20260906001555 | 95 | 360 | 3.0 | 0.0 | 0.00 | 0.00 | 0.00 | 11 | 1003.2 |
| 20260906001034 | 96 | 360 | 2.0 | 0.0 | 0.00 | 0.00 | 0.00 | 12 | 1003.2 |
| 20260906000513 | 96 | 360 | 2.0 | 0.0 | 0.00 | 0.00 | 0.00 | 11 | 1003.3 |
| 20260906000057 | 96 | 360 | 2.0 | 0.0 | 0.00 | 0.00 | 0.00 | 11 | 1003.2 |
| 20260905235538 | 96 | 360 | 3.0 | 0.0 | 0.00 | 0.00 | 0.00 | 11 | 1003.0 |
| 20260905235023 | 96 | 360 | 3.0 | 0.0 | 0.00 | 0.00 | 0.00 | 11 | 1003.0 |
| 20260905234505 | 96 | 360 | 4.0 | 0.0 | 0.00 | 0.00 | 0.00 | 11 | 1003.2 |
| 20260905234049 | 96 | 360 | 3.0 | 0.0 | 0.00 | 0.00 | 0.00 | 9 | 1003.0 |
| 20260905233532 | 97 | 360 | 3.0 | 0.0 | 0.00 | 0.00 | 0.00 | 9 | 1002.9 |
| 20260905233014 | 97 | 360 | 3.0 | 0.0 | 0.00 | 0.00 | 0.00 | 9 | 1003.0 |
| 20260905232557 | 97 | 360 | 3.0 | 0.0 | 0.00 | 0.00 | 0.00 | 10 | 1003.0 |
| 20260905232045 | 97 | 360 | 3.0 | 0.0 | 0.00 | 0.00 | 0.00 | 9 | 1003.0 |
| 20260905231525 | 97 | 360 | 3.0 | 0.0 | 0.00 | 0.00 | 0.00 | 9 | 1003.1 |
| 20260905231006 | 97 | 360 | 4.0 | 0.0 | 0.00 | 0.00 | 0.00 | 10 | 1003.1 |
| 20260905230550 | 97 | 360 | 3.0 | 0.0 | 0.00 | 0.00 | 0.00 | 10 | 1003.3 |
| 20260905230030 | 97 | 360 | 3.0 | 0.0 | 0.00 | 0.00 | 0.00 | 10 | 1003.2 |
| 20260905225509 | 97 | 360 | 4.0 | 0.0 | 0.00 | 0.00 | 0.00 | 10 | 1003.1 |
| 20260905225052 | 97 | 360 | 4.0 | 0.0 | 0.00 | 0.00 | 0.00 | 9 | 1003.1 |
| 20260905224558 | 97 | 360 | 4.0 | 0.0 | 0.00 | 0.00 | 0.00 | 8 | 1003.3 |
| 20260905224021 | 97 | 360 | 4.0 | 0.0 | 0.00 | 0.00 | 0.00 | 7 | 1003.4 |
| 20260905223603 | 97 | 360 | 5.0 | 0.0 | 0.00 | 0.00 | 0.00 | 7 | 1003.4 |
| 20260905223041 | 97 | 360 | 5.0 | 0.0 | 0.00 | 0.00 | 0.00 | 7 | 1003.5 |
| 20260905222519 | 97 | 360 | 4.0 | 0.0 | 0.00 | 0.00 | 0.00 | 7 | 1003.5 |
| 20260905222101 | 97 | 360 | 4.0 | 0.0 | 0.00 | 0.00 | 0.00 | 7 | 1003.5 |
| 20260905221555 | 97 | 360 | 4.0 | 0.0 | 0.00 | 0.00 | 0.00 | 6 | 1003.5 |
| 20260905221028 | 98 | 360 | 4.0 | 0.0 | 0.00 | 0.00 | 0.00 | 6 | 1003.5 |
| 20260905220501 | 97 | 360 | 4.0 | 0.0 | 0.00 | 0.00 | 0.00 | 5 | 1003.5 |
| 20260905215527 | 97 | 360 | 4.0 | 0.0 | 0.00 | 0.00 | 0.00 | 5 | 1003.7 |
| 20260905215004 | 97 | 360 | 4.0 | 0.0 | 0.00 | 0.00 | 0.00 | 5 | 1003.7 |
| 20260905214551 | 97 | 360 | 3.0 | 0.0 | 0.00 | 0.00 | 0.00 | 4 | 1003.8 |
| 20260905214030 | 98 | 360 | 3.0 | 0.0 | 0.00 | 0.00 | 0.00 | 6 | 1003.7 |
| 20260905213509 | 98 | 360 | 3.0 | 0.0 | 0.00 | 0.00 | 0.00 | 7 | 1003.7 |
| 20260905213053 | 98 | 360 | 3.0 | 0.0 | 0.00 | 0.00 | 0.00 | 6 | 1003.8 |
| 20260905212532 | 98 | 360 | 3.0 | 0.0 | 0.00 | 0.00 | 0.00 | 6 | 1003.9 |
| 20260905212015 | 98 | 360 | 3.0 | 0.0 | 0.00 | 0.00 | 0.00 | 6 | 1003.9 |
| 20260905211628 | 98 | 360 | 3.0 | 0.0 | 0.00 | 0.00 | 0.00 | 5 | 1004.0 |
| 20260905211039 | 97 | 360 | 3.0 | 0.0 | 0.00 | 0.00 | 0.00 | 5 | 1004.0 |
| 20260905210521 | 98 | 360 | 3.0 | 0.0 | 0.00 | 0.00 | 0.00 | 6 | 1004.1 |
| 20260905210117 | 97 | 360 | 3.0 | 0.0 | 0.00 | 0.00 | 0.00 | 7 | 1004.0 |
| 20260905205541 | 97 | 360 | 3.0 | 0.0 | 0.00 | 0.00 | 0.00 | 7 | 1004.2 |
| 20260905205021 | 97 | 360 | 3.0 | 0.0 | 0.00 | 0.00 | 0.00 | 7 | 1004.2 |
| 20260905204608 | 97 | 360 | 3.0 | 0.0 | 0.00 | 0.00 | 0.00 | 6 | 1004.2 |
| 20260905204042 | 98 | 360 | 3.0 | 0.0 | 0.00 | 0.00 | 0.00 | 6 | 1004.1 |
| 20260905203523 | 97 | 360 | 3.0 | 0.0 | 0.00 | 0.00 | 0.00 | 5 | 1004.2 |
| 20260905203003 | 98 | 360 | 2.0 | 0.0 | 0.00 | 0.00 | 0.00 | 6 | 1004.2 |
| 20260905202545 | 97 | 360 | 2.0 | 0.0 | 0.00 | 0.00 | 0.00 | 5 | 1004.3 |
| 20260905202022 | 97 | 360 | 3.0 | 0.0 | 0.00 | 0.00 | 0.00 | 6 | 1004.4 |
| 20260905201604 | 96 | 360 | 3.0 | 0.0 | 0.00 | 0.00 | 0.00 | 6 | 1004.6 |
| 20260905201043 | 96 | 360 | 2.0 | 0.0 | 0.00 | 0.00 | 0.00 | 7 | 1004.4 |
| 20260905200513 | 96 | 360 | 2.0 | 0.0 | 0.00 | 0.00 | 0.00 | 8 | 1004.4 |
| 20260905195529 | 96 | 360 | 2.0 | 0.0 | 0.00 | 0.00 | 0.00 | 9 | 1004.2 |
| 20260905195007 | 95 | 360 | 2.0 | 0.0 | 0.00 | 0.00 | 0.00 | 10 | 1004.4 |
| 20260905194548 | 94 | 360 | 3.0 | 0.0 | 0.00 | 0.00 | 0.00 | 10 | 1004.5 |
| 20260905194031 | 93 | 360 | 3.0 | 0.0 | 0.00 | 0.00 | 0.00 | 12 | 1004.7 |
| 20260905193509 | 92 | 360 | 3.0 | 0.0 | 0.00 | 0.00 | 0.00 | 11 | 1004.8 |
| 20260905193052 | 91 | 360 | 4.0 | 0.0 | 0.00 | 0.00 | 0.00 | 13 | 1005.1 |
| 20260905192532 | 92 | 360 | 3.0 | 0.0 | 0.00 | 0.00 | 0.00 | 12 | 1004.9 |
| 20260905192010 | 91 | 360 | 3.0 | 0.0 | 0.00 | 0.00 | 0.00 | 13 | 1005.2 |
| 20260905191553 | 91 | 360 | 2.0 | 0.0 | 0.00 | 0.00 | 0.00 | 13 | 1005.3 |
| 20260905191031 | 92 | 360 | 2.0 | 0.0 | 0.00 | 0.00 | 0.00 | 12 | 1005.5 |
| 20260905190510 | 92 | 360 | 1.0 | 0.0 | 0.00 | 0.00 | 0.00 | 12 | 1005.5 |
| 20260905190053 | 92 | 360 | 1.0 | 0.0 | 0.00 | 0.00 | 0.00 | 13 | 1005.6 |
| 20260905185538 | 91 | 360 | 1.0 | 0.0 | 0.00 | 0.00 | 0.00 | 14 | 1005.5 |
| 20260905185015 | 92 | 360 | 1.0 | 0.0 | 0.00 | 0.00 | 0.00 | 13 | 1005.7 |
| 20260905184603 | 91 | 360 | 1.0 | 0.0 | 0.00 | 0.00 | 0.00 | 14 | 1005.7 |
| 20260905184042 | 92 | 360 | 1.0 | 0.0 | 0.00 | 0.00 | 0.00 | 14 | 1005.8 |
| 20260905183520 | 92 | 360 | 2.0 | 0.0 | 0.00 | 0.00 | 0.00 | 14 | 1005.7 |
| 20260905183102 | 90 | 360 | 2.0 | 0.0 | 0.00 | 0.00 | 0.00 | 14 | 1006.0 |
| 20260905182539 | 91 | 360 | 1.0 | 0.0 | 0.00 | 0.00 | 0.00 | 14 | 1005.8 |
| 20260905182019 | 90 | 360 | 1.0 | 0.0 | 0.00 | 0.00 | 0.00 | 14 | 1006.0 |
| 20260905181611 | 90 | 360 | 2.0 | 0.0 | 0.00 | 0.00 | 0.00 | 14 | 1006.1 |
| 20260905181050 | 89 | 360 | 2.0 | 0.0 | 0.00 | 0.00 | 0.00 | 15 | 1006.1 |
| 20260905180529 | 89 | 360 | 2.0 | 0.0 | 0.00 | 0.00 | 0.00 | 15 | 1006.1 |
| 20260905180008 | 89 | 360 | 2.0 | 0.0 | 0.00 | 0.00 | 0.00 | 15 | 1006.3 |
| 20260905175552 | 89 | 360 | 2.0 | 0.0 | 0.00 | 0.00 | 0.00 | 16 | 1006.0 |
| 20260905175031 | 89 | 360 | 1.0 | 0.0 | 0.00 | 0.00 | 0.00 | 16 | 1006.1 |
| 20260905174510 | 88 | 360 | 1.0 | 0.0 | 0.00 | 0.00 | 0.00 | 17 | 1006.1 |